Temp
-10 -10 -11 -11 -11 -11 -11 -12 -12 -12 -13 -13 -13 -13 -13 -13 -14 -13 -13 -13 -13 -14 -14 -15 -15 -15 -15 -14 -14 -14 -14 -14 -13 -13 -13 -13 -13 -13 -13 -13 -13 -14 -14 -14 -15 -16 -18
-10 -11 -11 -11 -11 -11 -12 -12 -12 -12 -12 -12 -13 -13 -13 -13 -13 -14 -13 -13 -13 -13 -14 -14 -14 -15 -14 -14 -14 -14 -14 -14 -13 -13 -13 -13 -13 -14 -14 -14 -14 -14 -14 -15 -16 -17 -19
-11 -11 -11 -11 -11 -11 -12 -12 -12 -12 -12 -12 -12 -13 -13 -13 -13 -14 -14 -13 -13 -13 -13 -14 -14 -14 -14 -14 -14 -14 -14 -13 -14 -14 -14 -14 -13 -14 -15 -15 -14 -15 -16 -16 -17 -18 -19
-10 -10 -11 -11 -11 -11 -11 -11 -11 -11 -11 -12 -12 -12 -13 -13 -13 -13 -14 -13 -13 -13 -13 -13 -13 -13 -13 -13 -13 -13 -14 -14 -14 -14 -14 -14 -14 -14 -15 -15 -15 -16 -15 -16 -17 -19 -20
-10 -10 -10 -11 -11 -11 -11 -11 -11 -11 -11 -11 -11 -12 -12 -12 -13 -12 -12 -13 -13 -13 -13 -12 -12 -13 -13 -13 -13 -13 -14 -14 -14 -14 -14 -15 -15 -15 -16 -16 -16 -16 -16 -17 -18 -19 -21
-10 -10 -10 -11 -11 -11 -11 -11 -10 -11 -11 -10 -11 -11 -12 -12 -11 -11 -11 -12 -12 -12 -12 -12 -12 -12 -12 -12 -13 -13 -14 -14 -14 -15 -15 -15 -15 -16 -16 -16 -15 -16 -17 -18 -18 -19 -20
-10 -10 -10 -11 -11 -11 -11 -11 -11 -10 -11 -11 -10 -10 -11 -11 -10 -10 -10 -11 -11 -12 -12 -12 -12 -12 -12 -12 -13 -13 -14 -14 -15 -15 -15 -16 -16 -16 -16 -16 -16 -17 -17 -18 -19 -19 -20
-10 -10 -10 -10 -11 -11 -11 -11 -11 -11 -11 -10 -10 -10 -10 -11 -10 -10 -10 -10 -11 -11 -12 -12 -12 -12 -12 -13 -13 -13 -14 -14 -15 -15 -16 -16 -16 -16 -16 -17 -16 -17 -17 -18 -19 -19 -20
-10 -10 -10 -10 -10 -11 -11 -11 -11 -11 -11 -11 -10 -10 -10 -10 -10 -10 -9 -10 -10 -11 -11 -11 -11 -12 -12 -12 -13 -13 -14 -14 -15 -15 -16 -16 -16 -16 -16 -17 -17 -17 -17 -18 -19 -20 -20
-9 -9 -10 -10 -10 -11 -11 -11 -11 -11 -11 -11 -11 -10 -9 -9 -10 -10 -9 -9 -10 -10 -11 -11 -11 -12 -12 -12 -13 -13 -13 -14 -14 -15 -16 -16 -16 -16 -16 -17 -17 -17 -17 -18 -19 -19 -20
-10 -10 -10 -10 -10 -11 -11 -11 -11 -11 -11 -11 -11 -11 -10 -9 -9 -10 -10 -9 -9 -10 -10 -10 -11 -11 -12 -12 -12 -13 -13 -13 -14 -15 -15 -15 -16 -16 -16 -17 -17 -17 -17 -18 -18 -19 -19
-10 -10 -11 -11 -11 -11 -11 -11 -11 -11 -11 -11 -11 -11 -10 -10 -9 -9 -10 -10 -9 -10 -10 -10 -11 -11 -11 -11 -12 -12 -13 -13 -14 -15 -15 -15 -15 -16 -16 -16 -17 -16 -17 -17 -17 -18 -19
-10 -10 -10 -10 -11 -11 -11 -11 -11 -11 -11 -11 -11 -11 -11 -10 -10 -10 -9 -10 -10 -10 -10 -10 -11 -11 -11 -12 -12 -12 -13 -13 -13 -14 -14 -14 -14 -15 -16 -16 -17 -16 -16 -16 -17 -17 -18
-10 -10 -11 -11 -11 -11 -10 -11 -11 -11 -11 -11 -11 -12 -11 -11 -10 -10 -10 -10 -10 -10 -10 -11 -11 -11 -11 -11 -12 -12 -12 -13 -13 -13 -13 -13 -13 -14 -16 -16 -17 -17 -17 -17 -17 -17 -17
-11 -11 -11 -11 -11 -11 -11 -11 -11 -11 -11 -11 -11 -12 -12 -12 -11 -11 -11 -10 -10 -10 -11 -11 -11 -11 -12 -12 -12 -12 -12 -13 -13 -13 -13 -13 -13 -14 -14 -15 -16 -16 -17 -16 -16 -16 -17
-11 -11 -11 -11 -11 -11 -11 -11 -11 -11 -11 -11 -11 -11 -12 -12 -12 -12 -11 -11 -11 -11 -11 -11 -11 -12 -12 -12 -12 -12 -12 -12 -13 -13 -13 -13 -13 -13 -14 -14 -15 -15 -15 -16 -16 -16 -16
-11 -11 -11 -11 -11 -11 -10 -10 -10 -10 -10 -11 -11 -11 -12 -12 -12 -12 -12 -11 -11 -11 -11 -11 -11 -12 -12 -12 -12 -12 -12 -12 -13 -13 -13 -13 -13 -13 -14 -14 -15 -15 -16 -16 -16 -16 -16
-11 -11 -11 -11 -11 -11 -10 -10 -10 -11 -11 -10 -11 -11 -12 -12 -12 -12 -12 -12 -12 -11 -11 -11 -12 -12 -12 -12 -12 -12 -12 -13 -13 -13 -13 -13 -14 -14 -14 -14 -15 -15 -16 -16 -16 -17 -17
-11 -11 -11 -11 -11 -11 -11 -10 -11 -11 -11 -10 -11 -11 -11 -11 -12 -12 -12 -12 -12 -12 -12 -12 -12 -12 -12 -12 -12 -13 -13 -13 -13 -13 -13 -14 -13 -14 -14 -14 -14 -15 -16 -16 -16 -16 -17
-11 -11 -11 -11 -11 -11 -11 -11 -11 -11 -11 -11 -11 -10 -11 -12 -11 -12 -12 -13 -13 -12 -12 -12 -12 -12 -12 -13 -13 -13 -13 -13 -13 -14 -14 -14 -14 -14 -14 -14 -15 -14 -15 -16 -16 -16 -16
-11 -11 -11 -11 -11 -11 -11 -11 -11 -11 -11 -11 -11 -11 -11 -11 -11 -12 -13 -13 -13 -13 -13 -13 -13 -13 -13 -13 -13 -13 -13 -14 -13 -14 -14 -14 -14 -14 -14 -15 -15 -15 -15 -16 -16 -16 -16
-11 -11 -11 -11 -11 -11 -11 -11 -11 -11 -11 -11 -11 -11 -11 -11 -11 -12 -12 -13 -14 -13 -13 -14 -14 -13 -13 -14 -14 -14 -14 -14 -14 -14 -14 -14 -15 -15 -15 -15 -15 -15 -15 -16 -16 -16 -16
-11 -11 -11 -11 -11 -11 -12 -12 -11 -11 -11 -11 -12 -11 -11 -11 -11 -12 -13 -13 -13 -14 -14 -14 -14 -14 -15 -14 -14 -15 -15 -14 -15 -15 -15 -15 -15 -15 -15 -15 -15 -16 -16 -16 -16 -17 -17
-11 -11 -11 -11 -11 -11 -11 -11 -12 -12 -12 -12 -12 -11 -11 -11 -12 -12 -13 -13 -13 -14 -14 -15 -14 -14 -15 -15 -15 -15 -15 -15 -16 -16 -16 -16 -16 -16 -16 -16 -15 -15 -16 -16 -16 -16 -16
-12 -12 -12 -11 -11 -11 -11 -11 -11 -11 -12 -12 -12 -12 -12 -11 -12 -13 -14 -14 -14 -15 -15 -15 -15 -15 -14 -15 -15 -16 -16 -16 -16 -16 -16 -16 -16 -16 -16 -16 -15 -16 -16 -16 -16 -16 -16
-12 -13 -12 -12 -12 -11 -11 -11 -11 -12 -12 -12 -12 -12 -12 -12 -13 -13 -14 -14 -15 -15 -15 -15 -15 -15 -15 -15 -16 -16 -16 -16 -16 -16 -17 -17 -17 -17 -17 -17 -16 -16 -16 -16 -16 -16 -17
-13 -13 -13 -13 -12 -12 -12 -12 -12 -12 -13 -13 -13 -13 -13 -13 -13 -14 -13 -15 -15 -16 -16 -16 -16 -16 -16 -16 -16 -16 -16 -17 -17 -17 -17 -17 -17 -17 -18 -18 -17 -17 -17 -17 -17 -17 -17
-14 -13 -13 -13 -13 -13 -13 -13 -13 -13 -13 -13 -13 -13 -13 -13 -13 -14 -14 -15 -16 -16 -16 -16 -17 -17 -17 -17 -17 -17 -17 -17 -17 -17 -17 -18 -18 -18 -18 -18 -18 -18 -18 -18 -18 -18 -18
-14 -14 -14 -14 -14 -13 -13 -13 -13 -13 -14 -14 -14 -14 -14 -14 -14 -14 -15 -15 -16 -16 -17 -17 -17 -17 -17 -17 -17 -17 -17 -17 -17 -17 -18 -18 -18 -18 -19 -19 -19 -19 -19 -19 -19 -19 -19
Height
5874 5873 5871 5870 5869 5868 5866 5864 5862 5860 5857 5854 5851 5849 5847 5844 5841 5838 5835 5830 5827 5823 5820 5817 5813 5810 5806 5803 5800 5795 5791 5787 5783 5779 5774 5768 5763 5759 5754 5747 5743 5736 5730 5721 5713 5705 5694
5874 5873 5872 5871 5870 5868 5866 5864 5862 5859 5857 5854 5851 5849 5846 5843 5840 5837 5833 5829 5826 5821 5818 5815 5811 5808 5805 5802 5798 5793 5789 5785 5780 5775 5770 5765 5759 5754 5750 5743 5737 5730 5722 5714 5706 5694 5685
5874 5873 5872 5871 5870 5868 5866 5863 5861 5858 5856 5853 5850 5847 5844 5841 5838 5835 5831 5827 5824 5821 5817 5813 5810 5806 5803 5801 5795 5792 5788 5783 5778 5773 5767 5762 5755 5749 5743 5738 5732 5724 5718 5708 5698 5687 5679
5874 5873 5872 5871 5869 5867 5865 5863 5861 5859 5856 5852 5849 5846 5842 5839 5836 5832 5829 5825 5822 5820 5816 5811 5808 5805 5802 5798 5794 5790 5786 5781 5775 5770 5764 5758 5751 5745 5739 5735 5728 5721 5714 5703 5691 5682 5673
5873 5872 5871 5870 5868 5867 5865 5863 5861 5858 5856 5852 5849 5845 5841 5837 5834 5831 5827 5824 5821 5817 5814 5810 5807 5803 5800 5796 5792 5787 5783 5777 5772 5766 5759 5754 5748 5741 5735 5731 5726 5719 5708 5699 5689 5679 5672
5871 5871 5870 5868 5867 5866 5864 5862 5860 5857 5854 5852 5848 5845 5841 5837 5833 5829 5826 5823 5819 5816 5812 5808 5805 5803 5798 5795 5790 5785 5780 5775 5769 5762 5757 5751 5745 5738 5731 5728 5721 5712 5705 5697 5689 5680 5673
5870 5869 5868 5867 5865 5864 5862 5860 5858 5856 5853 5850 5846 5843 5840 5836 5832 5828 5825 5823 5821 5816 5810 5808 5805 5801 5797 5793 5788 5784 5778 5772 5765 5760 5754 5747 5741 5736 5729 5723 5718 5712 5704 5697 5689 5681 5676
5868 5867 5866 5864 5863 5861 5859 5858 5856 5854 5851 5848 5845 5842 5839 5836 5831 5828 5824 5822 5819 5816 5812 5808 5804 5801 5796 5792 5787 5782 5776 5770 5764 5758 5751 5745 5738 5733 5727 5721 5716 5711 5706 5698 5691 5684 5679
5866 5865 5864 5862 5860 5859 5857 5854 5853 5851 5849 5847 5843 5841 5838 5835 5830 5827 5822 5820 5816 5813 5810 5807 5802 5798 5794 5791 5786 5781 5775 5768 5762 5757 5749 5742 5737 5730 5725 5720 5716 5712 5706 5699 5693 5688 5685
5864 5863 5862 5860 5858 5856 5853 5851 5850 5848 5846 5844 5841 5839 5836 5833 5831 5825 5820 5817 5814 5811 5809 5806 5801 5796 5793 5787 5784 5779 5773 5767 5760 5754 5746 5740 5734 5728 5724 5720 5717 5712 5706 5700 5694 5692 5690
5861 5861 5860 5857 5855 5853 5850 5848 5847 5845 5842 5840 5838 5835 5832 5829 5827 5824 5820 5814 5811 5809 5807 5804 5799 5794 5790 5786 5781 5777 5771 5765 5759 5752 5745 5741 5735 5729 5724 5720 5715 5711 5707 5702 5697 5695 5693
5857 5857 5856 5853 5851 5848 5847 5845 5843 5841 5839 5836 5834 5831 5829 5827 5824 5821 5818 5813 5809 5808 5804 5801 5797 5792 5787 5783 5779 5774 5769 5764 5758 5752 5744 5738 5735 5728 5722 5718 5716 5712 5708 5704 5701 5697 5695
5853 5853 5851 5849 5847 5844 5842 5840 5839 5836 5834 5833 5830 5827 5825 5822 5821 5818 5815 5812 5809 5804 5802 5799 5793 5790 5785 5781 5777 5772 5767 5762 5756 5752 5745 5738 5734 5731 5725 5719 5715 5712 5710 5708 5705 5700 5699
5848 5848 5847 5845 5843 5840 5838 5836 5834 5832 5830 5828 5826 5823 5820 5818 5815 5812 5810 5808 5805 5802 5798 5794 5790 5786 5783 5778 5774 5770 5766 5761 5755 5750 5745 5738 5733 5730 5727 5722 5718 5713 5711 5710 5707 5705 5702
5843 5843 5842 5840 5838 5836 5833 5831 5829 5827 5824 5823 5821 5818 5814 5813 5810 5807 5805 5802 5799 5797 5795 5791 5787 5783 5779 5776 5772 5767 5763 5759 5753 5749 5745 5739 5734 5729 5726 5722 5719 5714 5712 5711 5710 5707 5705
5836 5836 5835 5834 5832 5830 5828 5826 5824 5822 5820 5817 5816 5812 5809 5808 5804 5803 5800 5797 5794 5791 5790 5787 5782 5780 5775 5771 5769 5764 5760 5756 5752 5747 5744 5740 5735 5730 5725 5722 5719 5715 5712 5710 5709 5709 5708
5830 5829 5828 5827 5825 5823 5821 5820 5818 5816 5815 5812 5810 5807 5805 5801 5799 5796 5794 5791 5788 5785 5783 5781 5778 5775 5771 5768 5764 5760 5757 5754 5750 5745 5742 5738 5735 5732 5725 5722 5719 5717 5714 5710 5709 5708 5707
5823 5822 5821 5820 5819 5817 5815 5813 5811 5809 5808 5806 5804 5802 5799 5795 5793 5789 5786 5784 5782 5778 5776 5775 5773 5768 5765 5762 5759 5757 5753 5749 5747 5743 5739 5736 5733 5730 5727 5722 5719 5716 5714 5712 5708 5706 5703
5815 5815 5814 5812 5811 5811 5809 5807 5805 5803 5801 5798 5797 5795 5792 5787 5785 5782 5780 5778 5774 5772 5769 5766 5765 5763 5759 5756 5753 5750 5748 5746 5743 5739 5736 5733 5730 5727 5724 5723 5717 5715 5712 5711 5709 5706 5702
5806 5806 5805 5805 5805 5803 5801 5799 5798 5796 5794 5792 5789 5787 5786 5781 5778 5775 5772 5771 5766 5764 5761 5759 5757 5754 5752 5750 5747 5744 5742 5739 5737 5735 5731 5728 5726 5724 5721 5719 5716 5712 5709 5706 5705 5704 5702
5798 5798 5798 5797 5795 5796 5794 5792 5790 5788 5786 5784 5782 5780 5777 5774 5772 5768 5764 5762 5758 5755 5755 5752 5750 5746 5745 5743 5741 5738 5735 5732 5730 5728 5726 5723 5721 5720 5716 5713 5711 5709 5706 5702 5700 5697 5696
5788 5788 5788 5787 5787 5786 5785 5784 5782 5780 5778 5776 5773 5771 5768 5766 5765 5760 5758 5752 5749 5746 5744 5743 5741 5739 5737 5735 5733 5731 5728 5725 5724 5721 5719 5717 5714 5712 5711 5706 5705 5703 5700 5697 5694 5691 5689
5776 5776 5776 5776 5776 5775 5775 5775 5774 5771 5769 5766 5764 5763 5760 5756 5753 5752 5748 5743 5740 5738 5735 5732 5730 5729 5727 5725 5724 5721 5720 5717 5716 5713 5712 5710 5707 5704 5704 5699 5697 5697 5694 5691 5688 5685 5682
5765 5765 5764 5764 5763 5763 5763 5764 5764 5762 5759 5758 5756 5751 5749 5746 5743 5742 5738 5735 5731 5728 5725 5724 5720 5718 5717 5713 5711 5710 5710 5708 5706 5705 5703 5701 5698 5695 5694 5691 5688 5686 5684 5681 5678 5675 5671
5755 5756 5754 5752 5751 5751 5751 5751 5750 5749 5747 5746 5745 5742 5739 5735 5733 5732 5728 5724 5720 5718 5716 5714 5711 5709 5707 5706 5703 5701 5700 5699 5697 5695 5694 5691 5688 5685 5683 5681 5678 5677 5674 5671 5667 5664 5660
5743 5744 5745 5744 5741 5740 5739 5739 5739 5737 5735 5733 5733 5730 5728 5725 5725 5721 5717 5714 5711 5708 5707 5706 5702 5698 5696 5695 5693 5692 5690 5688 5687 5685 5683 5681 5678 5676 5673 5670 5667 5666 5663 5658 5654 5652 5646
5730 5732 5733 5733 5732 5730 5729 5726 5726 5725 5724 5722 5720 5719 5717 5715 5715 5711 5707 5705 5702 5699 5698 5695 5693 5690 5687 5685 5682 5682 5681 5679 5676 5675 5673 5671 5667 5665 5662 5658 5657 5654 5650 5645 5642 5639 5631
5717 5718 5719 5721 5722 5720 5717 5716 5715 5713 5711 5709 5708 5706 5704 5703 5701 5699 5696 5693 5692 5690 5688 5686 5684 5682 5678 5676 5674 5672 5670 5669 5667 5665 5663 5660 5657 5654 5650 5646 5643 5639 5635 5631 5625 5619 5614
5704 5706 5706 5708 5708 5707 5707 5705 5702 5701 5701 5697 5695 5693 5691 5689 5689 5686 5684 5682 5682 5679 5677 5675 5674 5671 5668 5666 5665 5662 5661 5659 5658 5655 5652 5649 5647 5642 5639 5632 5627 5622 5618 5613 5607 5601 5595
Wind_Speed
8 9 10 10 11 13 16 17 19 18 19 21 21 22 22 23 24 23 24 24 23 24 25 26 24 25 26 26 26 25 26 28 28 27 27 29 30 28 28 31 30 32 35 37 40 41 35
7 7 9 11 14 16 17 18 19 20 19 22 21 21 20 22 25 23 23 23 24 23 24 25 23 23 23 25 25 26 28 30 30 31 31 33 34 32 30 31 33 35 37 38 41 39 31
10 10 10 11 14 16 17 18 19 21 22 24 23 21 22 22 23 23 25 21 22 24 24 24 23 23 22 24 25 27 28 30 32 34 34 34 35 35 33 30 32 34 34 37 39 35 30
8 11 12 12 14 16 17 19 21 23 26 25 25 25 24 24 24 22 21 19 20 22 23 21 23 22 22 24 24 26 28 31 33 36 36 35 35 35 34 30 30 33 33 37 40 35 26
6 9 11 13 14 15 17 19 21 23 25 27 28 28 27 26 24 21 18 15 17 19 21 23 25 22 22 24 24 27 30 33 35 38 39 37 34 35 35 29 28 30 34 37 35 34 21
6 9 11 13 14 15 17 18 19 22 24 27 27 29 28 27 25 22 17 15 17 17 19 23 24 23 22 22 24 27 30 33 34 36 40 42 36 32 32 28 29 33 34 35 32 28 18
10 10 11 12 15 16 17 19 21 20 22 22 25 28 30 26 23 21 20 19 18 19 21 23 24 23 22 23 24 26 30 31 33 36 40 40 36 31 30 29 28 30 32 32 28 24 14
12 13 14 14 15 18 20 20 20 20 20 23 23 24 27 28 23 19 18 18 18 16 18 21 21 23 25 25 26 26 29 32 34 35 37 36 34 31 27 27 27 28 28 28 24 22 12
13 14 15 18 20 20 20 22 21 25 22 22 23 25 25 27 25 21 19 17 16 17 21 20 21 22 24 24 26 28 29 31 33 33 33 35 31 30 27 22 22 22 24 25 21 19 12
11 13 17 19 20 21 22 23 24 24 25 25 24 25 26 26 27 21 16 19 19 19 20 21 22 22 25 27 28 27 27 29 31 31 31 33 30 29 25 20 16 18 22 24 21 16 11
10 14 18 22 22 23 25 25 24 23 26 26 27 25 26 24 23 25 20 15 17 19 20 22 23 25 26 26 26 26 25 27 29 29 30 30 28 25 23 20 18 18 21 21 20 13 9
12 16 18 25 28 25 28 24 23 23 25 24 27 27 27 27 25 25 27 19 15 16 16 19 23 24 24 25 24 23 23 24 26 24 26 31 28 24 24 22 20 18 19 21 21 16 11
16 19 23 27 30 25 26 26 26 25 25 24 25 30 27 29 28 25 26 25 19 14 16 17 20 23 23 22 23 22 22 23 24 24 24 30 30 25 21 19 18 17 16 17 18 19 14
20 24 27 30 30 28 24 25 27 30 28 26 26 28 30 30 30 29 25 23 22 20 15 15 17 18 20 23 21 22 21 21 22 22 24 26 27 27 24 18 13 11 9 11 14 18 19
27 31 33 34 33 31 29 27 28 31 27 27 28 28 31 30 31 30 28 24 22 19 18 16 17 16 17 20 22 23 21 21 20 20 22 23 24 25 24 22 18 14 10 11 14 18 18
36 36 38 36 35 30 31 28 28 30 27 27 30 31 32 32 33 31 28 27 26 23 21 20 19 17 15 18 21 25 22 22 20 19 19 20 20 22 23 25 21 18 15 12 12 14 14
39 41 40 39 34 34 29 30 33 31 29 29 32 33 32 33 35 33 28 28 27 27 25 22 22 19 17 19 20 23 22 22 20 18 18 18 17 20 20 18 18 17 14 10 9 9 12
42 43 42 43 35 26 29 34 34 31 29 30 31 31 31 32 31 32 30 27 27 28 27 24 22 21 19 19 19 22 23 20 20 19 16 16 16 17 17 18 14 13 12 12 10 10 12
45 44 41 38 37 33 31 34 31 30 31 32 31 30 32 34 33 34 35 32 31 29 29 28 26 24 21 21 21 20 23 22 21 19 18 17 17 19 18 17 21 16 12 12 13 14 15
42 37 31 33 36 35 33 32 31 32 33 35 36 35 29 33 35 37 38 37 39 33 30 31 29 28 23 23 23 23 24 25 22 21 19 19 18 21 22 19 18 20 19 18 17 14 14
38 36 38 37 40 40 37 35 37 36 37 36 37 38 35 36 36 37 36 36 37 37 32 32 31 33 30 26 26 27 28 29 26 24 22 21 21 19 23 25 21 22 23 24 22 25 26
46 46 42 43 43 44 44 41 38 39 39 37 39 41 42 40 36 37 39 38 38 40 41 36 34 35 33 32 31 31 31 31 26 26 26 26 24 24 21 28 27 24 27 27 30 29 29
50 50 49 48 49 49 48 45 44 39 43 42 42 44 46 46 44 39 41 44 45 44 41 38 37 39 36 35 32 35 34 32 29 28 28 28 30 30 26 30 30 27 29 29 31 32 35
47 47 45 43 44 46 49 50 49 50 49 47 48 47 46 45 46 43 45 45 41 41 41 42 41 39 39 35 34 32 36 35 31 30 29 29 30 33 32 33 33 34 34 34 38 38 40
43 44 43 42 41 44 48 49 49 53 52 48 48 50 50 53 52 45 43 44 40 40 40 39 38 39 38 37 37 34 38 37 33 32 32 32 31 33 34 35 37 37 37 41 44 45 46
47 45 45 45 44 44 47 47 48 49 50 46 47 49 48 55 47 48 43 40 39 39 37 37 37 36 35 35 37 38 38 39 36 31 30 33 33 35 36 38 40 40 43 45 49 49 53
49 48 47 46 45 47 45 45 44 46 47 48 48 47 49 50 46 46 42 39 38 36 37 35 36 35 34 34 34 34 35 34 32 31 30 32 35 36 36 41 43 45 46 49 51 55 57
52 51 51 49 49 45 44 43 43 43 44 44 45 46 46 45 42 41 40 36 35 39 38 37 36 33 33 34 34 34 33 31 30 32 34 38 38 39 43 46 48 49 51 52 55 59 62
55 54 51 48 46 45 44 45 44 41 42 39 41 41 38 38 39 37 35 33 37 38 37 36 38 35 35 36 35 34 32 31 34 36 38 40 42 45 46 49 51 53 55 59 62 65 67
Wind_Direction
42 36 22 18 15 16 8 1 360 354 354 353 353 357 358 355 354 355 355 351 345 347 350 348 343 345 350 353 352 351 354 355 351 347 346 344 344 338 338 337 337 333 331 327 323 320 310
32 28 23 19 15 6 5 4 360 354 349 347 345 347 348 352 351 352 346 343 347 342 347 345 342 344 347 350 347 347 349 350 349 346 345 345 345 344 342 341 339 336 337 331 327 324 317
23 21 12 4 2 1 0 358 358 356 359 354 348 346 346 342 347 345 349 342 342 343 345 343 343 341 344 347 343 344 345 346 345 344 344 345 344 343 346 343 340 342 337 331 335 333 326
18 3 358 358 354 353 357 358 358 359 1 360 356 357 356 354 353 346 339 339 340 342 347 350 345 341 341 343 340 342 341 343 342 341 340 340 342 343 344 348 345 343 339 343 345 338 339
358 3 357 357 354 355 354 355 356 359 357 2 0 356 358 2 359 353 339 333 336 339 341 346 346 342 340 339 338 341 340 338 340 338 336 336 342 342 343 350 347 345 350 353 346 344 355
332 343 347 351 349 349 347 347 351 355 355 356 359 357 358 2 2 357 340 329 331 334 333 344 346 344 344 342 341 338 335 335 334 333 336 337 335 342 344 348 354 355 353 355 351 355 11
307 322 325 332 337 340 339 341 342 345 346 349 351 357 354 358 4 360 353 346 344 339 334 336 341 346 348 350 345 340 337 334 332 335 343 343 340 345 349 352 360 357 355 356 357 7 26
298 305 315 316 318 324 329 332 334 336 337 337 345 350 355 354 359 4 2 357 359 350 343 346 348 348 350 350 347 343 338 334 338 343 345 345 341 346 353 355 359 357 356 360 6 21 43
302 309 319 317 321 318 320 322 325 328 331 331 338 340 346 343 355 355 6 1 3 360 360 358 356 355 353 352 347 346 341 339 342 354 346 346 345 350 353 3 355 357 357 8 15 33 54
318 326 321 322 319 317 315 312 314 318 325 330 331 331 338 341 344 346 360 2 356 356 356 358 359 359 354 352 351 349 351 347 350 356 346 351 353 350 352 1 359 4 8 12 19 35 56
320 325 323 315 313 319 317 310 315 311 317 319 325 322 327 328 327 336 342 355 357 350 352 356 357 354 355 354 350 352 354 0 357 357 351 355 355 356 356 358 13 11 19 16 22 34 73
320 320 325 329 326 306 319 310 310 308 313 315 321 324 319 322 323 325 331 338 349 349 347 352 355 357 353 353 351 350 356 5 7 3 358 353 4 3 4 5 10 12 19 20 23 33 50
319 320 323 324 329 312 313 313 311 307 310 306 314 315 315 314 320 318 319 329 332 335 341 345 354 354 353 351 349 352 356 3 8 8 7 5 11 11 13 14 14 16 18 19 27 37 47
310 314 317 319 320 321 312 313 312 312 305 306 308 305 310 312 316 315 316 317 321 323 324 337 349 352 349 353 350 347 348 360 9 6 6 10 12 12 20 27 30 26 18 31 32 44 56
300 305 308 309 311 314 310 309 312 314 302 304 310 304 303 309 313 314 315 314 313 312 311 318 332 339 343 344 343 347 342 348 2 360 3 6 12 18 19 16 20 20 30 23 34 45 54
294 300 308 313 309 305 307 302 310 316 307 304 307 306 304 307 307 311 313 315 309 304 305 310 317 322 331 338 339 343 339 339 352 354 358 2 14 23 25 25 23 28 35 37 33 33 44
291 297 302 307 309 306 299 302 300 309 308 310 310 305 306 306 302 305 308 308 307 303 297 296 306 311 315 323 331 332 334 334 338 347 349 354 2 8 10 31 30 26 26 28 21 18 7
287 292 298 300 306 300 294 294 302 298 304 309 312 311 307 310 303 301 299 300 303 302 299 289 294 299 302 310 321 323 323 324 330 334 336 341 341 355 3 358 23 29 24 16 10 358 348
284 288 288 293 299 293 293 299 303 299 302 301 307 310 309 308 305 301 296 294 295 297 297 293 283 292 295 302 309 312 312 314 317 321 322 323 330 332 340 347 341 356 7 3 348 340 333
279 283 281 288 295 293 293 295 290 290 293 299 304 309 313 310 312 308 306 298 294 289 296 296 290 280 286 292 299 304 302 305 306 309 312 312 316 321 322 326 328 328 333 334 331 322 318
267 276 285 284 287 290 288 289 290 283 285 294 301 305 310 312 313 311 309 305 296 286 285 291 290 281 279 284 294 292 297 298 300 300 305 303 301 306 311 314 315 313 317 321 321 317 316
273 275 278 280 281 282 284 288 289 283 286 291 297 299 302 303 311 310 310 308 297 292 288 285 287 286 284 283 286 290 289 294 294 295 299 302 299 299 304 306 307 305 307 311 312 310 311
270 272 274 275 276 280 282 281 283 285 288 288 292 297 297 300 308 308 309 308 304 298 290 284 280 281 285 284 281 288 284 292 292 290 294 299 298 298 301 301 299 295 297 299 302 304 305
270 272 273 278 275 277 281 283 283 283 285 291 293 289 292 299 299 305 307 305 305 303 299 293 288 287 280 271 279 283 282 284 287 287 289 290 293 295 293 295 292 293 296 294 300 301 299
273 276 276 275 279 281 282 283 283 282 282 286 289 294 295 300 296 300 300 301 299 298 297 293 289 287 285 281 284 282 281 285 284 285 287 288 290 290 290 288 288 291 290 294 296 293 295
274 274 276 278 277 278 281 285 287 284 281 282 285 289 294 294 294 297 298 296 295 297 290 293 291 285 280 282 286 286 288 293 289 285 286 286 286 286 287 286 288 290 292 292 290 292 292
273 274 277 279 282 285 283 284 283 282 280 280 283 286 287 286 289 290 295 292 289 291 291 288 289 285 285 289 289 289 289 288 285 284 284 285 286 288 286 287 289 290 289 287 289 288 289
268 270 275 278 281 281 283 283 282 283 281 282 283 285 286 286 285 292 293 290 292 290 289 284 288 291 287 289 289 289 285 280 281 282 284 287 290 289 288 289 290 291 289 289 290 290 291
265 268 271 274 276 280 279 281 282 282 280 281 280 281 283 286 290 289 289 289 290 286 282 281 289 288 289 290 287 285 280 279 284 286 286 287 288 288 290 291 291 290 290 291 292 293 294